Farmville, VA

3:37 PM EST on February 27, 2017 (GMT -0500)
Farmville Regional

Weather History for KFVX - February, 2014

Change the Weather History Date:

Wednesday, February 26, 2014

  Actual Average Record
Temperature  
Mean Temperature 38 °F -  
Max Temperature 51 °F 51 °F 79 °F (1951)
Min Temperature 24 °F 26 °F 5 °F (1967)
Degree Days  
Heating Degree Days 26    
Moisture  
Dew Point 12 °F    
Average Humidity 40    
Maximum Humidity 69    
Minimum Humidity 12    
Precipitation  
Precipitation 0.00 in - - ()
Sea Level Pressure  
Sea Level Pressure 29.88 in    
Wind  
Wind Speed 2 mph (NW)    
Max Wind Speed 10 mph    
Max Gust Speed -    
Visibility 10 miles    
Events      
Averages and records for this station are not official NWS values.
T = Trace of Precipitation, MM = Missing Value Source: NWS Daily Summary

Daily Weather History Graph

Daily Weather History Graph

Search for Another Location

Airport or City:

Trip Planner

Search our weather history database for the weather conditions in past years. The results will help you decide how hot, cold, wet, or windy it might be!

Date:

Astronomy

Feb. 26, 2014 Rise Set
Actual Time 6:49 AM EST 6:04 PM EST
Civil Twilight 6:22 AM EST 6:31 PM EST
Nautical Twilight 5:52 AM EST 7:01 PM EST
Astronomical Twilight 5:22 AM EST 7:31 PM EST
Moon 4:30 AM EST (2/26) 3:19 PM EST (2/26)
Length of Visible Light 12h 08m
Length of Day
11h 15m
Waning Crescent, 10% of the Moon is Illuminated
Feb 26
Waning Crescent
Mar 1
New
Mar 8
First Quarter
Mar 16
Full
Mar 23
Last Quarter

Hourly Weather History & Observations

Time (EST) Temp. Windchill Dew Point Humidity Pressure Visibility Wind Dir Wind Speed Gust Speed Precip Events Conditions
12:15 AM 35.6 °F - 17.6 °F 48% 29.99 in 10.0 mi Calm Calm - N/A   Overcast
12:35 AM 33.8 °F 30.8 °F 15.8 °F 48% 29.98 in 10.0 mi NE 3.5 mph - N/A   Mostly Cloudy
12:55 AM 33.8 °F - 15.8 °F 48% 29.98 in 10.0 mi Calm Calm - N/A   Mostly Cloudy
1:15 AM 33.8 °F - 15.8 °F 48% 29.97 in 10.0 mi Calm Calm - N/A   Mostly Cloudy
1:35 AM 33.8 °F 30.8 °F 17.6 °F 52% 29.96 in 10.0 mi East 3.5 mph - N/A   Overcast
1:55 AM 33.8 °F - 17.6 °F 52% 29.96 in 10.0 mi Calm Calm - N/A   Overcast
2:15 AM 35.6 °F - 21.2 °F 56% 29.95 in 10.0 mi Calm Calm - N/A   Overcast
2:35 AM 33.8 °F - 19.4 °F 56% 29.94 in 10.0 mi Calm Calm - N/A   Mostly Cloudy
2:55 AM 32.0 °F 28.7 °F 17.6 °F 55% 29.93 in 10.0 mi SE 3.5 mph - N/A   Scattered Clouds
3:15 AM 32.0 °F - 19.4 °F 60% 29.93 in 10.0 mi Calm Calm - N/A   Scattered Clouds
3:35 AM 30.2 °F - 17.6 °F 60% 29.92 in 10.0 mi Calm Calm - N/A   Scattered Clouds
3:55 AM 30.2 °F - 17.6 °F 60% 29.92 in 10.0 mi Calm Calm - N/A   Clear
4:15 AM 30.2 °F - 19.4 °F 64% 29.92 in 10.0 mi Calm Calm - N/A   Clear
4:35 AM 30.2 °F - 19.4 °F 64% 29.92 in 10.0 mi Calm Calm - N/A   Clear
4:55 AM 30.2 °F - 19.4 °F 64% 29.92 in 10.0 mi Calm Calm - N/A   Mostly Cloudy
5:15 AM 30.2 °F - 19.4 °F 64% 29.92 in 10.0 mi Calm Calm - N/A   Mostly Cloudy
5:35 AM 30.2 °F - 21.2 °F 69% 29.92 in 10.0 mi Calm Calm - N/A   Scattered Clouds
5:55 AM 30.2 °F - 21.2 °F 69% 29.92 in 10.0 mi Calm Calm - N/A   Scattered Clouds
6:15 AM 30.2 °F - 21.2 °F 69% 29.91 in 10.0 mi Calm Calm - N/A   Scattered Clouds
6:35 AM 30.2 °F - 21.2 °F 69% 29.92 in 10.0 mi Calm Calm - N/A   Scattered Clouds
6:55 AM 30.2 °F - 21.2 °F 69% 29.93 in 10.0 mi Calm Calm - N/A   Mostly Cloudy
7:15 AM 30.2 °F - 21.2 °F 69% 29.94 in 10.0 mi Calm Calm - N/A   Mostly Cloudy
7:35 AM 32.0 °F - 21.2 °F 64% 29.95 in 10.0 mi Calm Calm - N/A   Overcast
7:55 AM 33.8 °F - 23.0 °F 65% 29.95 in 10.0 mi Calm Calm - N/A   Scattered Clouds
8:15 AM 33.8 °F - 23.0 °F 65% 29.96 in 10.0 mi Calm Calm - N/A   Scattered Clouds
8:35 AM 33.8 °F - 21.2 °F 60% 29.97 in 10.0 mi Calm Calm - N/A   Scattered Clouds
8:55 AM 35.6 °F 32.8 °F 23.0 °F 60% 29.97 in 10.0 mi West 3.5 mph - N/A   Scattered Clouds
9:15 AM 35.6 °F 31.7 °F 23.0 °F 60% 29.96 in 10.0 mi WSW 4.6 mph - N/A   Scattered Clouds
9:35 AM 35.6 °F 32.8 °F 23.0 °F 60% 29.95 in 10.0 mi SW 3.5 mph - N/A   Clear
9:55 AM 37.4 °F 34.9 °F 24.8 °F 60% 29.95 in 10.0 mi SSW 3.5 mph - N/A   Clear
10:15 AM 39.2 °F 37.0 °F 23.0 °F 52% 29.93 in 10.0 mi South 3.5 mph - N/A   Clear
10:35 AM 41.0 °F 38.0 °F 21.2 °F 45% 29.92 in 10.0 mi SSW 4.6 mph - N/A   Mostly Cloudy
10:55 AM 42.8 °F 40.1 °F 17.6 °F 36% 29.91 in 10.0 mi WNW 4.6 mph - N/A   Mostly Cloudy
11:15 AM 42.8 °F 38.0 °F 19.4 °F 39% 29.91 in 10.0 mi NNW 8.1 mph - N/A   Mostly Cloudy
11:35 AM 44.6 °F 42.2 °F 21.2 °F 39% 29.90 in 10.0 mi NW 4.6 mph - N/A   Scattered Clouds
11:55 AM 46.4 °F 41.9 °F 15.8 °F 29% 29.89 in 10.0 mi North 9.2 mph - N/A   Mostly Cloudy
12:15 PM 48.2 °F - 17.6 °F 30% 29.88 in 10.0 mi NW 4.6 mph - N/A   Scattered Clouds
12:35 PM 50.0 °F - 14.0 °F 24% 29.86 in 10.0 mi North 10.4 mph - N/A   Mostly Cloudy
12:55 PM 46.4 °F 43.5 °F 12.2 °F 25% 29.85 in 10.0 mi WNW 5.8 mph - N/A   Scattered Clouds
1:15 PM 48.2 °F - 14.0 °F 25% 29.84 in 10.0 mi NW 4.6 mph - N/A   Scattered Clouds
1:35 PM 51.8 °F - 12.2 °F 21% 29.83 in 10.0 mi North 5.8 mph - N/A   Scattered Clouds
1:55 PM 48.2 °F - 12.2 °F 24% 29.82 in 10.0 mi North 8.1 mph - N/A   Mostly Cloudy
2:15 PM 46.4 °F 44.3 °F 8.6 °F 22% 29.81 in 10.0 mi North 4.6 mph - N/A   Scattered Clouds
2:35 PM 51.8 °F - 8.6 °F 18% 29.80 in 10.0 mi North 5.8 mph - N/A   Mostly Cloudy
2:55 PM 48.2 °F - 8.6 °F 20% 29.79 in 10.0 mi WNW 6.9 mph - N/A   Scattered Clouds
3:15 PM 51.8 °F - 6.8 °F 16% 29.79 in 10.0 mi NW 3.5 mph - N/A   Clear
3:35 PM 51.8 °F - 6.8 °F 16% 29.79 in 10.0 mi NW 5.8 mph - N/A   Clear
3:55 PM 51.8 °F - 6.8 °F 16% 29.78 in 10.0 mi North 5.8 mph - N/A   Clear
4:15 PM 51.8 °F - 3.2 °F 14% 29.78 in 10.0 mi WNW 3.5 mph - N/A   Clear
4:35 PM 51.8 °F - 3.2 °F 14% 29.78 in 10.0 mi NNW 4.6 mph - N/A   Clear
4:55 PM 51.8 °F - -0.4 °F 12% 29.78 in 10.0 mi Calm Calm - N/A   Clear
5:15 PM 48.2 °F - -2.2 °F 12% 29.78 in 10.0 mi Calm Calm - N/A   Clear
5:35 PM 46.4 °F 45.2 °F -2.2 °F 13% 29.78 in 10.0 mi NW 3.5 mph - N/A   Clear
5:55 PM 42.8 °F 41.1 °F -2.2 °F 15% 29.79 in 10.0 mi WNW 3.5 mph - N/A   Clear
6:15 PM 39.2 °F - -0.4 °F 19% 29.79 in 10.0 mi Calm Calm - N/A   Clear
6:35 PM 37.4 °F - -0.4 °F 20% 29.80 in 10.0 mi Calm Calm - N/A   Clear
6:55 PM 35.6 °F - -2.2 °F 20% 29.80 in 10.0 mi Calm Calm - N/A   Clear
7:15 PM 35.6 °F - -5.8 °F 17% 29.81 in 10.0 mi Calm Calm - N/A   Clear
7:35 PM 33.8 °F 30.8 °F -11.2 °F 14% 29.82 in 10.0 mi NNE 3.5 mph - N/A   Clear
7:55 PM 33.8 °F - 3.2 °F 28% 29.83 in 10.0 mi Calm Calm - N/A   Clear
8:15 PM 33.8 °F - 8.6 °F 35% 29.84 in 10.0 mi Calm Calm - N/A   Clear
8:35 PM 33.8 °F - 8.6 °F 35% 29.84 in 10.0 mi Calm Calm - N/A   Clear
8:55 PM 32.0 °F - 8.6 °F 38% 29.84 in 10.0 mi Calm Calm - N/A   Clear
9:15 PM 32.0 °F 28.7 °F 1.4 °F 27% 29.85 in 10.0 mi North 3.5 mph - N/A   Clear
9:35 PM 32.0 °F 28.7 °F -0.4 °F 25% 29.84 in 10.0 mi WNW 3.5 mph - N/A   Clear
9:55 PM 32.0 °F - -5.8 °F 20% 29.84 in 10.0 mi Calm Calm - N/A   Clear
10:10 PM 30.2 °F - -0.4 °F 27% 29.84 in 10.0 mi Calm Calm - N/A   Clear
10:35 PM 28.4 °F - -2.2 °F 27% 29.85 in 10.0 mi Calm Calm - N/A   Clear
10:55 PM 28.4 °F - 5.0 °F 37% 29.86 in 10.0 mi Calm Calm - N/A   Clear
11:15 PM 26.6 °F - 8.6 °F 47% 29.85 in 10.0 mi Calm Calm - N/A   Clear
11:35 PM 26.6 °F - 6.8 °F 43% 29.85 in 10.0 mi Calm Calm - N/A   Clear
11:55 PM 24.8 °F - 5.0 °F 43% 29.85 in 10.0 mi Calm Calm - N/A   Clear